• In Hungary
  • List of Countries
  • For 7 days
  • Water Temperature
  • Satellite Maps
  • Weather Map
  • News
  • Weather Widgets
  • user-avatar
    Login

    Hourly Weather Galezow

    Today, 25 November, Saturday

    Time Temperature Precipitation Wind Pressure Humidity
    00:00 +4°C° 0 mm 3 mps 747 mmHg 92%
    01:00 +3°C° 0 mm 3 mps 748 mmHg 93%
    02:00 +3°C° 0 mm 3 mps 748 mmHg 94%
    03:00 +4°C° 0 mm 2 mps 748 mmHg 94%
    04:00 +3°C° 0 mm 2 mps 748 mmHg 95%
    05:00 +3°C° 0 mm 2 mps 747 mmHg 94%
    06:00 +5°C° 0 mm 1 mps 747 mmHg 94%
    07:00 +5°C° 0 mm 1 mps 747 mmHg 93%
    08:00 +5°C° 0.6 mm 1 mps 747 mmHg 92%
    09:00 +5°C° 0.6 mm 1 mps 746 mmHg 91%
    10:00 +5°C° 0.6 mm 1 mps 746 mmHg 91%
    11:00 +4°C° 0.9 mm 2 mps 745 mmHg 91%
    12:00 +4°C° 0.9 mm 2 mps 745 mmHg 91%
    13:00 +4°C° 0.9 mm 2 mps 744 mmHg 91%
    14:00 +4°C° 1.9 mm 2 mps 744 mmHg 92%
    15:00 +3°C° 1.9 mm 3 mps 744 mmHg 93%
    16:00 +3°C° 1.9 mm 3 mps 743 mmHg 94%
    17:00 +3°C° 1.2 mm 4 mps 743 mmHg 93%
    18:00 +3°C° 1.2 mm 4 mps 743 mmHg 92%
    19:00 +3°C° 1.2 mm 5 mps 743 mmHg 91%
    20:00 +4°C° 0.5 mm 4 mps 743 mmHg 88%
    21:00 +4°C° 0.5 mm 4 mps 744 mmHg 85%
    22:00 +4°C° 0.5 mm 4 mps 744 mmHg 83%
    23:00 +3°C° 0.1 mm 4 mps 745 mmHg 83%

    Tomorrow, 26 November, Sunday

    Time Temperature Precipitation Wind Pressure Humidity
    00:00 +3°C° 0.1 mm 3 mps 745 mmHg 83%
    01:00 +3°C° 0.1 mm 3 mps 746 mmHg 83%
    02:00 +3°C° 0 mm 3 mps 746 mmHg 86%
    03:00 +2°C° 0 mm 3 mps 747 mmHg 88%
    04:00 +2°C° 0 mm 3 mps 747 mmHg 91%
    05:00 +1°C° 0 mm 4 mps 748 mmHg 91%
    06:00 +1°C° 0 mm 4 mps 748 mmHg 92%
    07:00 0°C° 0 mm 4 mps 749 mmHg 93%
    08:00 +1°C° 0 mm 4 mps 749 mmHg 90%
    09:00 +1°C° 0 mm 5 mps 750 mmHg 87%
    10:00 +1°C° 0 mm 5 mps 750 mmHg 84%
    11:00 +1°C° 0 mm 5 mps 750 mmHg 80%
    12:00 +2°C° 0 mm 5 mps 750 mmHg 77%
    13:00 +2°C° 0 mm 5 mps 750 mmHg 74%
    14:00 +1°C° 0 mm 5 mps 751 mmHg 76%
    15:00 +1°C° 0 mm 5 mps 751 mmHg 78%
    16:00 0°C° 0 mm 5 mps 751 mmHg 80%
    17:00 0°C° 0 mm 5 mps 751 mmHg 81%
    18:00 0°C° 0 mm 5 mps 751 mmHg 83%
    19:00 0°C° 0 mm 5 mps 751 mmHg 84%
    20:00 0°C° 0 mm 5 mps 751 mmHg 85%
    21:00 0°C° 0 mm 5 mps 751 mmHg 85%
    22:00 -1°C° 0 mm 5 mps 751 mmHg 86%
    23:00 0°C° 0 mm 5 mps 751 mmHg 86%

    Day after tomorrow, 27 November, Monday

    Time Temperature Precipitation Wind Pressure Humidity
    00:00 0°C° 0 mm 5 mps 751 mmHg 87%
    01:00 0°C° 0 mm 5 mps 751 mmHg 87%
    02:00 -1°C° 0.1 mm 6 mps 751 mmHg 87%
    03:00 +1°C° 0.1 mm 6 mps 751 mmHg 87%
    04:00 +1°C° 0.1 mm 6 mps 751 mmHg 87%
    05:00 +1°C° 0.1 mm 6 mps 751 mmHg 86%
    06:00 +1°C° 0.1 mm 6 mps 751 mmHg 85%
    07:00 +1°C° 0.1 mm 6 mps 751 mmHg 84%
    08:00 +1°C° 0.1 mm 6 mps 751 mmHg 83%
    09:00 +1°C° 0.1 mm 6 mps 751 mmHg 82%
    10:00 0°C° 0.1 mm 7 mps 752 mmHg 81%
    11:00 +1°C° 0.1 mm 6 mps 752 mmHg 81%
    12:00 +1°C° 0.1 mm 6 mps 752 mmHg 80%
    13:00 +2°C° 0.1 mm 6 mps 752 mmHg 80%
    14:00 +1°C° 0 mm 6 mps 751 mmHg 80%
    15:00 +1°C° 0 mm 6 mps 751 mmHg 80%
    16:00 +1°C° 0 mm 5 mps 751 mmHg 81%
    17:00 +1°C° 0 mm 6 mps 751 mmHg 80%
    18:00 +1°C° 0 mm 6 mps 751 mmHg 80%
    19:00 +1°C° 0 mm 6 mps 751 mmHg 80%
    20:00 -1°C° 0 mm 6 mps 751 mmHg 82%
    21:00 -1°C° 0 mm 6 mps 750 mmHg 84%
    22:00 -1°C° 0 mm 6 mps 750 mmHg 86%
    23:00 -1°C° 0 mm 6 mps 749 mmHg 85%

    28 November, Tuesday

    Time Temperature Precipitation Wind Pressure Humidity
    00:00 -1°C° 0 mm 7 mps 749 mmHg 85%
    01:00 -1°C° 0 mm 7 mps 748 mmHg 85%
    02:00 -1°C° 0.1 mm 7 mps 748 mmHg 84%
    03:00 -1°C° 0.1 mm 7 mps 747 mmHg 83%
    04:00 -1°C° 0.1 mm 7 mps 747 mmHg 82%
    05:00 -1°C° 0.2 mm 7 mps 747 mmHg 83%
    06:00 -1°C° 0.2 mm 6 mps 746 mmHg 83%
    07:00 -1°C° 0.2 mm 6 mps 746 mmHg 84%
    08:00 -1°C° 0.2 mm 6 mps 746 mmHg 84%
    09:00 -1°C° 0.2 mm 6 mps 746 mmHg 84%
    10:00 +1°C° 0.2 mm 6 mps 746 mmHg 85%
    11:00 +1°C° 0.1 mm 5 mps 746 mmHg 85%
    12:00 +1°C° 0.1 mm 5 mps 746 mmHg 85%
    13:00 +1°C° 0.1 mm 5 mps 745 mmHg 85%
    14:00 +1°C° 0 mm 5 mps 745 mmHg 86%
    15:00 +1°C° 0 mm 5 mps 745 mmHg 87%
    16:00 +1°C° 0 mm 5 mps 745 mmHg 88%
    17:00 +1°C° 0 mm 5 mps 744 mmHg 87%
    18:00 +1°C° 0 mm 5 mps 744 mmHg 86%
    19:00 +1°C° 0 mm 5 mps 743 mmHg 86%
    20:00 0°C° 0.1 mm 5 mps 743 mmHg 84%
    21:00 -1°C° 0.1 mm 6 mps 742 mmHg 83%
    22:00 -1°C° 0.1 mm 6 mps 742 mmHg 82%
    23:00 -1°C° 0.3 mm 6 mps 742 mmHg 82%

    29 November, Wednesday

    Time Temperature Precipitation Wind Pressure Humidity
    00:00 -1°C° 0.3 mm 6 mps 741 mmHg 82%
    01:00 -1°C° 0.3 mm 6 mps 741 mmHg 83%
    02:00 +1°C° 0.1 mm 6 mps 740 mmHg 82%
    03:00 +1°C° 0.1 mm 6 mps 740 mmHg 81%
    04:00 +1°C° 0.1 mm 6 mps 740 mmHg 81%
    05:00 +1°C° 0 mm 6 mps 739 mmHg 81%
    06:00 +1°C° 0 mm 6 mps 739 mmHg 80%
    07:00 +1°C° 0 mm 6 mps 739 mmHg 80%
    08:00 +1°C° 0.1 mm 6 mps 739 mmHg 80%
    09:00 +1°C° 0.1 mm 6 mps 739 mmHg 80%
    10:00 +1°C° 0.1 mm 6 mps 739 mmHg 80%
    11:00 +1°C° 0.1 mm 6 mps 739 mmHg 79%
    12:00 +2°C° 0.1 mm 6 mps 738 mmHg 78%
    13:00 +2°C° 0.1 mm 6 mps 738 mmHg 77%
    14:00 +1°C° 0 mm 6 mps 737 mmHg 78%
    15:00 +1°C° 0 mm 5 mps 737 mmHg 79%
    16:00 +1°C° 0 mm 5 mps 737 mmHg 80%
    17:00 +1°C° 0.1 mm 6 mps 736 mmHg 82%
    18:00 +2°C° 0.1 mm 6 mps 736 mmHg 83%
    19:00 +2°C° 0.1 mm 6 mps 736 mmHg 85%
    20:00 +2°C° 0.1 mm 7 mps 736 mmHg 84%
    21:00 +2°C° 0.1 mm 7 mps 736 mmHg 84%
    22:00 +2°C° 0.1 mm 7 mps 736 mmHg 83%
    23:00 +2°C° 0.1 mm 7 mps 737 mmHg 82%

    30 November, Thursday

    Time Temperature Precipitation Wind Pressure Humidity
    00:00 +1°C° 0.1 mm 8 mps 737 mmHg 82%
    01:00 +1°C° 0.1 mm 8 mps 737 mmHg 81%
    02:00 +2°C° 0.1 mm 7 mps 738 mmHg 81%
    03:00 0°C° 0.1 mm 7 mps 738 mmHg 80%
    04:00 0°C° 0.1 mm 7 mps 738 mmHg 80%
    05:00 -1°C° 0 mm 6 mps 738 mmHg 82%
    06:00 -1°C° 0 mm 6 mps 739 mmHg 83%
    07:00 -2°C° 0 mm 6 mps 739 mmHg 85%
    08:00 -2°C° 0 mm 6 mps 739 mmHg 83%
    09:00 -1°C° 0 mm 5 mps 739 mmHg 81%
    10:00 0°C° 0 mm 5 mps 739 mmHg 80%
    11:00 0°C° 0 mm 5 mps 739 mmHg 76%
    12:00 0°C° 0 mm 4 mps 739 mmHg 73%
    13:00 0°C° 0 mm 4 mps 739 mmHg 69%
    14:00 0°C° 0 mm 4 mps 739 mmHg 73%
    15:00 0°C° 0 mm 3 mps 739 mmHg 77%
    16:00 0°C° 0 mm 3 mps 739 mmHg 81%
    17:00 0°C° 0 mm 3 mps 739 mmHg 83%
    18:00 -1°C° 0 mm 4 mps 739 mmHg 85%
    19:00 -2°C° 0 mm 4 mps 739 mmHg 87%
    20:00 -2°C° 0 mm 4 mps 739 mmHg 88%
    21:00 -2°C° 0 mm 4 mps 739 mmHg 90%
    22:00 -2°C° 0 mm 4 mps 739 mmHg 91%
    23:00 -2°C° 0 mm 4 mps 739 mmHg 91%
    Show more